Regional Weather Roundup
Issued by NWS

Home | Current Version | Previous Version | Text Only | Print | Product List | Glossary On
Versions: 1 2 3 4 5 6 7 8 9 10 11 12 13 14 15 16 17 18 19 20 21 22 23 24 25 26 27 28 29 30 31 32 33 34 35 36 37 38 39 40 41 42 43 44 45 46 47 48 49 50
000
ASUS43 KTOP 192108
RWRKS

WEATHER ROUNDUP FOR KANSAS
NATIONAL WEATHER SERVICE GOODLAND KS
300 PM CST FRI DEC 19 2014

NOTE:  "FAIR" INDICATES FEW OR NO CLOUDS BELOW 12,000 FEET WITH NO
SIGNIFICANT WEATHER AND/OR OBSTRUCTIONS TO VISIBILITY.

KSZ001>006-013>018-027>032-041>047-192200-
NORTHWEST KANSAS

CITY           SKY/WX    TMP DP  RH WIND       PRES   REMARKS
GOODLAND       SUNNY     49  23  36 W7        30.05F
HAYS           SUNNY     46  30  53 S12       30.09S
HILL CITY      SUNNY     52  26  36 W7        30.06F
RUSSELL        PTSUNNY   40  36  86 S10       30.09F WCI  33
$$

KSZ061>065-074>080-084>089-192200-
SOUTHWEST KANSAS

CITY           SKY/WX    TMP DP  RH WIND       PRES   REMARKS
DODGE CITY     PTSUNNY   42  34  73 SW9       30.11F
ELKHART          N/A    N/A N/A N/A MISG        N/A
GARDEN CITY    SUNNY     45  33  63 S9        30.08F
GREAT BEND     CLOUDY    37  30  75 S10       30.13F WCI  30
LIBERAL        CLOUDY    39  32  75 SW8       30.12F
PRATT          CLOUDY    37  34  87 SW8       30.15F
$$

KSZ066>073-081>083-090>101-192200-
SOUTHEAST KANSAS

CITY           SKY/WX    TMP DP  RH WIND       PRES   REMARKS
CHANUTE        CLOUDY    35  34  96 N3        30.20S FOG
COFFEYVILLE    CLOUDY    39  35  86 N3        30.20F
HUTCHINSON     CLOUDY    38  32  79 SW7       30.16F
MEDICINE LODGE   N/A     38  34  85 S7        30.16F
NEWTON         CLOUDY    34  27  75 S6        30.18S
PARSONS        CLOUDY    38  35  89 N3        30.21F
WICHITA INTL   CLOUDY    37  32  82 SW3       30.18F
WICHITA JABRA  CLOUDY    34  30  85 CALM      30.17F
WICHITA MCCONL CLOUDY    36  32  87 S2        30.17F
WINFIELD       CLOUDY    38  32  79 W3        30.20S
$$

KSZ007>012-019>026-033>040-048>060-102>105-192200-
NORTHEAST KANSAS

CITY           SKY/WX    TMP DP  RH WIND       PRES   REMARKS
CONCORDIA      CLOUDY    33  30  88 S13       30.14F WCI  24
EMPORIA        CLOUDY    33  28  81 CALM      30.19F
LAWRENCE       CLOUDY    34  28  79 CALM      30.21F
MANHATTAN      CLOUDY    33  30  88 S6        30.18F
MARYSVILLE     CLOUDY    32  30  93 S6        30.16F
OLATHE IND     CLOUDY    33  30  88 CALM      30.21F
OLATHE EXE     CLOUDY    33  30  88 CALM      30.19F
SALINA         CLOUDY    35  31  85 S8        30.17F FOG
TOPEKA BILLARD CLOUDY    33  29  85 SW3       30.22F
TOPEKA FORBES  CLOUDY    33  27  78 SW5       30.20F
$$



USA.gov is the U.S. government's official web portal to all federal, state and local government web resources and services.